Regional Weather Roundup
Issued by NWS

Home | Current Version | Previous Version | Text Only | Print | Product List | Glossary Off
Versions: 1 2 3 4 5 6 7 8 9 10 11 12 13 14 15 16 17 18 19 20 21 22 23 24 25 26 27 28 29 30 31 32 33 34 35 36 37 38 39 40 41 42 43 44 45 46 47 48 49 50

000
ASUS43 KIND 291859
RWRIN

WEATHER ROUNDUP FOR INDIANA
NATIONAL WEATHER SERVICE INDIANAPOLIS IN
300 PM EDT SUN MAR 29 2015

NOTE: "FAIR" INDICATES FEW OR NO CLOUDS BELOW 12,000 FEET WITH NO
SIGNIFICANT WEATHER AND/OR OBSTRUCTIONS TO VISIBILITY.

* - STATION DOES NOT REPORT WEATHER SUCH AS PRECIPITATION OR FOG.

+ - STATION NOT QUALITY CONTROLLED BY THE NATIONAL WEATHER SERVICE.
    USE DATA WITH CAUTION...ESPECIALLY DEWPOINT AND RELATIVE
    HUMIDITY OBSERVATIONS.

INZ001>003-010>013-019-020-292000-
NORTHWEST INDIANA

CITY           SKY/WX    TMP DP  RH WIND       PRES   REMARKS
GARY /AIRPORT/ DRIZZLE   36  27  69 S20G31    29.92F
KNOX *+          N/A     36  12  38 S16G24    29.95F

$$

LMZ046-743>745-292000-
SOUTHERN LAKE MICHIGAN

STATION/POSITION TIME  TEMP WIND        PRES
                       AIR  DIR/SP/G
                 (UTC) (F)  (DEG/KT/KT) (MB)
BURNS HARBOR     1800   38  200/ 23/ 27 1014.2R
MICHIGAN CITY    1800   37  160/ 22/ 28   N/A

$$

INZ004-005-014>016-021>024-292000-
NORTH CENTRAL INDIANA

CITY           SKY/WX    TMP DP  RH WIND       PRES   REMARKS
GOSHEN         LGT RAIN  41  20  43 S25G31    29.94F
PERU/GRISSOM   LGTSLEET  43  19  39 S21G26    29.97F
SOUTH BEND     LGT RAIN  38  24  57 S16G29    29.93F
WARSAW +       FLURRIES  41  19  42 S16G24    29.96F

$$

INZ006>009-017-018-025>027-292000-
NORTHEAST INDIANA

CITY           SKY/WX    TMP DP  RH WIND       PRES   REMARKS
ANGOLA *+      SUNNY     41  25  52 S21       30.01F
AUBURN +       CLOUDY    43  19  39 S14G29    30.00F
FORT WAYNE     CLOUDY    44  22  41 S22G32    30.02F

$$

INZ028-029-035-036-043>045-051>053-292000-
WEST CENTRAL INDIANA

CITY           SKY/WX    TMP DP  RH WIND       PRES   REMARKS
CRAWFORDSVL +  CLOUDY    39  19  45 S21G26    29.99F
GREENCASTLE +  CLOUDY    41  18  38 S15G23    30.03F
LAFAYETTE      LGT RAIN  39  26  59 S13       29.97F
TERRE HAUTE    CLOUDY    47  24  40 S30G38    30.00F

$$

INZ030>032-037>040-046>048-054>057-064-065-292000-
CENTRAL INDIANA

CITY           SKY/WX    TMP DP  RH WIND       PRES   REMARKS
CP ATTERBURY + CLOUDY    46  16  29 S16       30.10F
COLUMBUS       SUNNY     45  10  24 S13       30.11F
FRANKFORT +    LGT RAIN  39  29  67 SE13G20   29.99F
GREENWOOD *+   CLOUDY    45  12  26 S17G25    30.06F
INDIANAPOLIS   CLOUDY    45  11  25 S25G32    30.01F
-EAGLE CREEK   CLOUDY    44  11  26 S18G29    30.02F
KOKOMO *+        N/A     43  23  45 S18G24    29.99F
MT COMFORT *+  CLOUDY    43   9  24 S17G24    30.06F
SHELBYVILLE    CLOUDY    45  19  35 S20G29    30.09F

$$

INZ033-034-041-042-049-050-058-059-292000-
EAST CENTRAL INDIANA

CITY           SKY/WX    TMP DP  RH WIND       PRES   REMARKS
MUNCIE         CLOUDY    44  17  33 S22G31    30.04F

$$

INZ060-061-067>069-081>083-085>088-292000-
SOUTHWEST INDIANA

CITY           SKY/WX    TMP DP  RH WIND       PRES   REMARKS
EVANSVILLE     SUNNY     56  22  26 S17G29    30.10F
HUNTINGBURG *+ SUNNY     52  21  30 S20G26    30.12F

$$

INZ062-063-066-070>080-084-089>092-292000-
SOUTH CENTRAL AND SOUTHEAST INDIANA

CITY           SKY/WX    TMP DP  RH WIND       PRES   REMARKS
BLOOMINGTON    CLOUDY    49  15  25 S17G25    30.06F
SEYMOUR +      PTSUNNY   52  23  32 S15       30.11F

$$




USA.gov is the U.S. government's official web portal to all federal, state and local government web resources and services.